Flag for Canada Weather past 2 weeks in Steinbach, Manitoba, Canada

Now
81 °F

Warm.


Feels Like: 85 °F
Forecast: 61 / 86 °F
Wind: 3 mph from Southeast

Location: Winnipeg The Forks

Current Time: Aug 30, 2015 at 2:00:00 PM

Latest Report: Aug 30, 2015 at 1:00 PM


Visibility: N/A

Pressure: 29.67 "Hg

Humidity: 69%

Dew point: 70 °F

Location of SteinbachLocation

Historic Weather in Steinbach — Graph

°F

Steinbach temperature yesterday

Maximum temperature yesterday: 75 °F (at 7:00 PM)
Minimum temperature yesterday: 64 °F (at 6:00 AM)
Average temperature yesterday: 69 °F

Past Weeks' High & Low Weather Summary

 TemperatureHumidityPressure
High90 °F (Aug 15, 7:00 PM)96% (Aug 30, 7:00 AM)30.20 "Hg (Aug 30, 7:00 AM)
Low49 °F (Aug 26, 7:00 AM)33% (Aug 20, 5:00 PM)29.36 "Hg (Aug 22, 9:00 PM)
Average65 °F69%29.86 "Hg
* Reported Aug 15 2:00 PM — Aug 30 12:00 Noon, Steinbach, Weather by CustomWeather, © 2015

Note: Actual official high and low records may vary slightly from our data, if they occured in-between our weather recording intervals... More about our weather records

Advertising

Steinbach weather history for previous 24 hours

 ConditionsComfort  
Time TempWeatherWind HumidityBarometerVisibility
12:00 PM
Sun, Aug 30
77 °FWarm.2 mph74%29.69 "HgN/A
11:00 AM74 °FMild.2 mph84%29.71 "HgN/A
8:00 AM66 °FMild.1 mph95%29.72 "HgN/A
7:00 AM65 °FMild.1 mph96%29.73 "HgN/A
5:00 AM67 °FMild.2 mph94%29.73 "HgN/A
4:00 AM68 °FMild.3 mph87%29.73 "HgN/A
3:00 AM68 °FMild.6 mph92%29.72 "HgN/A
1:00 AM70 °FMild.3 mph90%29.74 "HgN/A
12:00 AM71 °FMild.6 mph88%29.74 "HgN/A
11:00 PM
Sat, Aug 29
72 °FMild.6 mph86%29.73 "HgN/A
10:00 PM73 °FMild.6 mph83%29.73 "HgN/A
8:00 PM74 °FMild.3 mph81%29.73 "HgN/A
7:00 PM75 °FMild.3 mph79%29.75 "HgN/A
6:00 PM74 °FMild.2 mph81%29.77 "HgN/A
5:00 PM73 °FMild.2 mph81%29.79 "HgN/A
4:00 PM73 °FMild.3 mph81%29.81 "HgN/A
2:00 PM72 °FMild.2 mph85%29.87 "HgN/A
Weather by CustomWeather, © 2015

See weather overviewHow to use our weather pages